OBJECT C

Satellite information

Favourite Embed

Satellite Type and Status

UNKNOWNIN ORBIT

Key statistics

Satellite OBJECT C at a glance.

Uptime

1137

Days in orbit

Revolutions

≈ 15.0

Per day

Orbit

SSO

Sun Synchronous Orbit

Inclination

97.6

Latest

Satellite identification and parameters

Extended collection of information and parameters for OBJECT C.

Object identification

Identified? True

Debris? False

Object name: OBJECT C

International designator: 2022-032C

Object number (NORAD): 52155

Object ID (CCSDS): 52155

Country: PEOPLES REPUBLIC OF CHINA (PRC)

Current information (Y/N): Y

RCS size: MEDIUM

Orbital parameters

Period: 96.038 minutes

Inclination: 97.6381 deg

SMA: 6946.867 km

Apoapsis: 578.984 km

Periapsis: 558.48 km

RAAN: 177.4618 deg

Eccentricy: 0.0014758

Argument of periapsis: 106.5596 deg

Mean anomaly: 253.7249 deg

Mean motion: 14.99406202 rev/day

Mean motion (dot): 0.00002898 rev/day2

B* drag term: 0.00024097 1/REarth

Two-line elements (TLE)

Creation date: May 9, 2025, 2:46 a.m.

Reference frame: TEME

Reference center: EARTH

Epoch: May 8, 2025, 10:12 p.m. UTC

TLE line 0: 0 OBJECT C

TLE line 1: 1 52155U 22032C 25128.92514974 .00002898 00000-0 24097-3 0 9998

TLE line 2: 2 52155 97.6381 177.4618 0014758 106.5596 253.7249 14.99406202169651

Live tracking on map

Real-time ground track for satellite OBJECT C.

In-orbit conjunctions

There are no conjunctions computed for OBJECT C, at the moment. Check back to stay up to date, as we update our databases every day.

Go to all conjunctions

Associated space launch

The Tianping-2 A/B/C satellites were built by the China Aerospace Science and Industry Corporation (CASIC) and will be used as calibration targets for services such as atmospheric space environment study and orbital prediction model correction.

OBJECT C was lifted into orbit during the mission ‘Long March 11 | Tianping-2 A/B/C’, on board a Long March 11 space rocket.

The launch took place on March 30, 2022, 2:29 a.m. from Launch Area 95A.

For more information about the launch, click the button.

Launch to space Long March 11 | Tianping-2 A/B/C
Long March 11 | Tianping-2 A/B/C

Agency: N/A

Status: Launch Successful

Launch date: March 30, 2022, 2:29 a.m. UTC

Rocket: Long March 11

Launch pad: Launch Area 95A

Location: Jiuquan Satellite Launch Center, People's Republic of China

...

Latest news about this satellite

There are no fresh news available about this satellite. Check back as we update our databases every day.


Newsletter sign-up

Weekly statistics, charts and insights to help you stay on top of the space industry.